FLOCK 2K-03

Last updated on Wed Feb 14 2018 16:20:51 GMT+0000 (Coordinated Universal Time)

1 42850U 17042AB 18044.68349389 .00006700 00000-0 19541-3 0 9996 2 42850 96.9926 307.4754 0010339 192.1335 167.9662 15.35609918 32674
UTC large
Height (km)
Speed (km/s)
/
Latitude / Longitude
Inclination (degrees)
Orbital Period (minutes)
Azimuth
Elevation
Range (km)
Doppler Factor

Next 0 passes for location: London (51.5072 / 0.1276)

Sorry there are no passes over London.
FLOCK 2K-03